IRIDIUM 66 [B]

Last updated on Wed Aug 01 2018 00:20:25 GMT+0000 (Coordinated Universal Time)

1 25289U 98021E 18212.67167978 -.00000089 00000-0 -35631-4 0 9992 2 25289 86.4189 52.6078 0001899 81.1418 278.9995 14.38606864 63736
UTC large
Height (km)
Speed (km/s)
/
Latitude / Longitude
Inclination (degrees)
Orbital Period (minutes)
Azimuth
Elevation
Range (km)
Doppler Factor

Next 0 passes for location: London (51.5072 / 0.1276)

Sorry there are no passes over London.
IRIDIUM 66 [B]